TimeMST,TemperatureF,Dew PointF,Humidity,Sea Level PressureIn,VisibilityMPH,Wind Direction,Wind SpeedMPH,Gust SpeedMPH,PrecipitationIn,Events,Conditions,WindDirDegrees,DateUTC
12:53 AM,35.1,19.9,54,30.01,10.0,South,10.4,-,N/A,,Clear,190,2012-11-19 07:53:00
1:53 AM,37.0,19.0,48,29.98,10.0,SSW,13.8,-,N/A,,Clear,210,2012-11-19 08:53:00
2:53 AM,34.0,17.1,50,29.99,10.0,SSW,8.1,-,N/A,,Clear,200,2012-11-19 09:53:00
3:53 AM,37.9,17.1,43,29.96,10.0,SSW,9.2,-,N/A,,Clear,210,2012-11-19 10:53:00
4:53 AM,37.9,18.0,45,29.94,10.0,SSW,16.1,-,N/A,,Clear,210,2012-11-19 11:53:00
5:53 AM,39.9,18.0,41,29.92,10.0,South,23.0,-,N/A,,Clear,190,2012-11-19 12:53:00
6:53 AM,42.1,18.0,38,29.93,10.0,South,12.7,21.9,N/A,,Clear,190,2012-11-19 13:53:00
7:53 AM,43.0,19.9,40,29.95,10.0,SSW,16.1,-,N/A,,Clear,210,2012-11-19 14:53:00
8:53 AM,46.0,21.0,37,29.94,10.0,SSW,24.2,31.1,N/A,,Clear,200,2012-11-19 15:53:00
9:53 AM,48.0,23.0,37,29.93,10.0,SSW,20.7,29.9,N/A,,Clear,200,2012-11-19 16:53:00
10:53 AM,52.0,25.0,35,29.92,10.0,SSW,24.2,35.7,N/A,,Clear,210,2012-11-19 17:53:00
11:53 AM,55.9,26.1,32,29.88,10.0,SSW,24.2,33.4,N/A,,Clear,210,2012-11-19 18:53:00
12:53 PM,55.9,26.1,32,29.86,10.0,SW,33.4,43.7,N/A,,Clear,230,2012-11-19 19:53:00
1:53 PM,57.0,26.1,30,29.86,10.0,SSW,28.8,34.5,N/A,,Clear,210,2012-11-19 20:53:00
2:53 PM,55.9,27.0,33,29.87,10.0,SSW,17.3,27.6,N/A,,Clear,210,2012-11-19 21:53:00
3:53 PM,55.0,26.1,33,29.85,10.0,SW,21.9,31.1,N/A,,Clear,220,2012-11-19 22:53:00
4:53 PM,51.1,28.0,41,29.85,10.0,South,18.4,-,N/A,,Clear,170,2012-11-19 23:53:00
5:53 PM,51.1,28.9,43,29.83,10.0,South,17.3,26.5,N/A,,Clear,180,2012-11-20 00:53:00
6:53 PM,50.0,28.9,44,29.80,10.0,South,27.6,35.7,N/A,,Clear,190,2012-11-20 01:53:00
7:53 PM,51.1,28.9,43,29.81,10.0,SSW,13.8,25.3,N/A,,Clear,200,2012-11-20 02:53:00
8:53 PM,52.0,28.9,41,29.77,10.0,SSW,26.5,34.5,N/A,,Clear,210,2012-11-20 03:53:00
9:53 PM,52.0,28.9,41,29.75,10.0,SSW,27.6,39.1,N/A,,Clear,210,2012-11-20 04:53:00
10:53 PM,52.0,28.9,41,29.75,10.0,SSW,19.6,27.6,N/A,,Clear,210,2012-11-20 05:53:00
11:53 PM,53.1,28.9,40,29.73,10.0,SSW,27.6,38.0,N/A,,Clear,210,2012-11-20 06:53:00